Location: ??????????
(48.3949°N, 37.7910°E)
Time: 14:00:41
(UTC+00:00)

Daily predictions for brighter satellites

Satellite Brightness Start Highest point End
(mag) Time Altitude Azimuth Time Altitude Azimuth Time Altitude Azimuth
Ariane Rocket 3.0 17:19:08 10° SSE 17:24:11 74° ENE 17:29:15 10° NNW
Meteor 2-15 4.4 17:18:58 10° S 17:25:00 79° E 17:31:06 10° NNE
USA 306 4.2 17:21:08 10° W 17:25:11 42° N 17:29:16 10° ENE
Gbstr 26 Del rocket 4.4 17:19:36 10° SW 17:27:34 69° SSE 17:34:36 10° ENE
Cosmos 921 Rocket 3.3 17:23:28 10° NNW 17:27:46 68° WSW 17:31:58 10° S
MOS 1-B Rocket 4.5 17:19:51 10° NNE 17:27:49 71° ESE 17:34:31 10° S
ERS-2 2.9 17:24:55 10° N 17:28:31 58° WNW 17:32:05 10° SSW
MOS 1 4.3 17:24:12 10° SSE 17:29:51 85° ENE 17:35:35 10° NNW
[s.n.48335] 4.4 17:29:09 10° SSE 17:30:28 13° SE 17:31:47 10° ESE
[s.n.48334] 4.4 17:29:13 10° SSE 17:30:31 13° SE 17:31:51 10° ESE
[s.n.48333] 4.4 17:29:25 10° SSE 17:30:37 12° SE 17:31:48 10° ESE
[s.n.48332] 4.4 17:29:18 10° SSE 17:30:37 13° SE 17:31:57 10° ESE
[s.n.48331] 4.4 17:29:26 10° SSE 17:30:46 13° SE 17:32:06 10° ESE
[s.n.48330] 4.4 17:29:39 10° SSE 17:30:52 12° SE 17:32:04 10° ESE
[s.n.48329] 4.4 17:29:35 10° SSE 17:30:56 13° SE 17:32:17 10° ESE
[s.n.48328] 4.4 17:29:47 10° SSE 17:31:00 12° SE 17:32:13 10° ESE
[s.n.48327] 4.4 17:29:50 10° SSE 17:31:04 13° SE 17:32:17 10° ESE
[s.n.48326] 4.4 17:29:48 10° SSE 17:31:08 13° SE 17:32:27 10° ESE
Cosmos 1814 Rocket 4.2 17:25:59 10° NNW 17:31:14 74° WSW 17:36:23 10° SSE
Cosmos 1805 Rocket 4.3 17:27:22 10° N 17:31:23 36° ENE 17:35:23 10° SE
[s.n.48324] 4.4 17:32:22 10° S 17:33:52 14° SE 17:35:22 10° ESE
[s.n.48325] 4.3 17:33:00 10° S 17:34:32 14° SE 17:36:03 10° ESE
[s.n.48323] 4.3 17:33:16 10° S 17:34:40 14° SE 17:36:06 10° ESE
[s.n.48321] 4.3 17:33:27 10° S 17:34:53 14° SE 17:36:18 10° ESE
[s.n.48320] 4.3 17:33:30 10° S 17:34:56 14° SE 17:36:22 10° ESE
[s.n.48322] 4.3 17:33:25 10° S 17:34:56 14° SE 17:36:28 10° ESE
[s.n.48319] 4.3 17:33:35 10° S 17:35:02 14° SE 17:36:27 10° ESE
[s.n.48318] 4.3 17:33:36 10° S 17:35:02 14° SE 17:36:29 10° ESE
[s.n.48317] 4.3 17:33:45 10° S 17:35:11 14° SE 17:36:38 10° ESE
[s.n.48316] 4.3 17:33:49 10° S 17:35:16 14° SE 17:36:42 10° ESE
[s.n.48315] 4.3 17:33:47 10° S 17:35:20 14° SE 17:36:54 10° E
[s.n.48314] 4.3 17:33:51 10° S 17:35:25 14° SE 17:36:59 10° E
SPOT 3 Rocket 3.9 17:30:30 10° SE 17:35:28 51° ENE 17:40:28 10° N
[s.n.48313] 4.3 17:33:57 10° S 17:35:30 14° SE 17:37:04 10° E
[s.n.48312] 4.3 17:34:02 10° S 17:35:35 14° SE 17:37:09 10° E
[s.n.48311] 4.3 17:34:06 10° S 17:35:41 14° SE 17:37:15 10° E
[s.n.48310] 4.3 17:34:11 10° S 17:35:42 14° SE 17:37:14 10° ESE
[s.n.48309] 4.3 17:34:16 10° S 17:35:47 14° SE 17:37:19 10° E
[s.n.48308] 4.3 17:34:19 10° S 17:35:54 14° SE 17:37:30 10° E
[s.n.48307] 4.3 17:34:31 10° S 17:36:00 14° SE 17:37:29 10° ESE
[s.n.48306] 4.3 17:34:27 10° S 17:36:03 14° SE 17:37:38 10° E
[s.n.48305] 4.3 17:34:34 10° S 17:36:09 15° SE 17:37:45 10° E
[s.n.48304] 4.3 17:34:44 10° S 17:36:13 14° SE 17:37:42 10° ESE
[s.n.48303] 4.3 17:34:43 10° S 17:36:18 15° SE 17:37:54 10° E
[s.n.48302] 4.3 17:34:47 10° S 17:36:23 15° SE 17:37:58 10° E
[s.n.48301] 4.3 17:34:58 10° S 17:36:29 14° SE 17:37:59 10° ESE
[s.n.48300] 4.3 17:35:01 10° S 17:36:31 14° SE 17:38:02 10° ESE
[s.n.48299] 4.3 17:35:08 10° S 17:36:39 14° SE 17:38:10 10° ESE
[s.n.48298] 4.3 17:35:06 10° S 17:36:43 15° SE 17:38:20 10° E
[s.n.48297] 4.3 17:35:11 10° S 17:36:48 15° SE 17:38:25 10° E
[s.n.48296] 4.3 17:35:15 10° S 17:36:53 15° SE 17:38:30 10° E
[s.n.48295] 4.3 17:35:28 10° S 17:36:58 14° SE 17:38:30 10° E
[s.n.48294] 4.3 17:35:32 10° S 17:37:04 14° SE 17:38:36 10° E
CREW DRAGON DEMO-1 DEB 3.1 17:34:27 10° W 17:37:04 57° NNW 17:39:42 10° ENE
[s.n.48293] 4.3 17:35:36 10° S 17:37:07 14° SE 17:38:40 10° E
[s.n.48292] 4.3 17:35:33 10° S 17:37:11 15° SE 17:38:49 10° E
[s.n.48291] 4.3 17:35:46 10° S 17:37:17 14° SE 17:38:50 10° E
[s.n.48290] 4.3 17:35:48 10° S 17:37:19 14° SE 17:38:52 10° E
[s.n.48289] 4.3 17:35:55 10° S 17:37:27 14° SE 17:39:01 10° E
[s.n.48288] 4.3 17:35:58 10° S 17:37:31 14° SE 17:39:04 10° E
[s.n.48286] 4.3 17:36:01 10° S 17:37:34 14° SE 17:39:08 10° E
[s.n.48287] 4.3 17:36:03 10° S 17:37:36 14° SE 17:39:09 10° E
[s.n.48285] 4.2 17:36:13 10° S 17:37:47 14° SE 17:39:20 10° E
[s.n.48284] 4.2 17:36:17 10° S 17:37:51 15° SE 17:39:25 10° E
Resurs 1-3 3.6 17:33:31 10° SSE 17:37:54 87° ENE 17:42:19 10° NNW
[s.n.48283] 4.2 17:36:23 10° S 17:37:57 15° SE 17:39:31 10° E
[s.n.48282] 4.2 17:36:28 10° S 17:38:02 15° SE 17:39:36 10° E
[s.n.48281] 4.2 17:36:25 10° S 17:38:07 15° SE 17:39:48 10° E
[s.n.48280] 4.2 17:36:37 10° S 17:38:12 15° SE 17:39:47 10° E
[s.n.48279] 4.2 17:36:41 10° S 17:38:15 15° SE 17:39:51 10° E
[s.n.48278] 4.2 17:36:39 10° S 17:38:20 15° SE 17:40:01 10° E
[s.n.48277] 4.2 17:36:51 10° S 17:38:26 15° SE 17:40:01 10° E
[s.n.48276] 4.2 17:36:51 10° S 17:38:32 15° SE 17:40:14 10° E
Cosmos 1437 Rocket 3.4 17:36:22 10° SSE 17:39:52 35° E 17:43:28 10° NNE
FALCON 9 DEB 2.9 17:36:57 10° WNW 17:39:58 67° SSW 17:42:43 12° SE
USA 186 3.9 17:40:21 10° SSW 17:42:22 19° W 17:44:19 10° NW
Cosmos 2082 Rocket 4.4 17:42:36 10° N 17:45:02 13° NNE 17:47:28 10° NE
Cosmos 1743 Rocket 3.5 17:40:49 10° N 17:45:10 86° E 17:49:31 10° S
Aureole 1 Rocket 4.3 17:42:13 10° SW 17:46:29 42° WNW 17:49:55 10° N
FALCON 9 DEB 3.1 17:44:00 10° WNW 17:46:58 56° SSW 17:49:28 14° SE
Lacrosse 5 rocket 4.1 17:45:49 10° W 17:47:27 12° WSW 17:49:06 10° SW
Intercosmos 25 Rocket 4.4 17:40:33 10° N 17:48:17 75° ENE 17:52:51 10° SSE
Meteor 2-2 Rocket 4.5 17:43:48 10° SSW 17:49:27 76° WNW 17:55:07 10° N
USA 307 4.2 17:45:40 10° WNW 17:49:42 39° N 17:53:44 10° ENE
FALCON 9 DEB 2.9 17:49:24 10° WNW 17:52:26 64° SSW 17:54:47 15° SE
CZ-4C R/B 3.9 17:46:49 10° NW 17:52:58 36° NNE 18:00:10 10° E
ERBS 4.1 17:52:07 10° W 17:55:08 32° NNW 17:58:10 10° NE
Cosmos 1553 Rocket 3.9 17:49:56 10° S 17:56:02 77° E 18:02:15 10° NNE
Cosmos 1486 Rocket 4.3 17:51:17 10° S 17:56:20 46° ESE 18:01:26 10° NNE
Cosmos 1500 Rocket 3.8 17:53:31 10° NNW 17:57:57 70° W 18:02:17 10° S
Cosmos 968 Rocket 3.6 17:53:23 10° S 17:58:32 59° ESE 18:03:41 10° NNE
USA 290 3.4 17:55:54 10° N 17:58:51 30° ENE 18:00:54 16° ESE
Terra 3.5 17:57:09 10° ESE 18:00:25 20° ENE 18:03:48 10° NNE
USA 308 4.3 17:59:08 10° WNW 18:03:10 38° N 18:07:13 10° ENE
Cosmos 1666 Rocket 4.3 18:01:01 10° N 18:05:09 37° ENE 18:08:09 17° SE
BREEZE-M R/B 2.7 18:05:19 10° SSW 18:07:33 26° SSE 18:08:15 22° ESE
USA 245 3.0 18:08:14 23° ESE 18:09:06 30° ENE 18:11:10 10° N
Cosmos 2221 3.9 18:05:32 10° SW 18:09:37 41° WNW 18:13:45 10° N
Cosmos 1417 Rocket 4.5 18:03:27 10° S 18:09:41 83° E 18:15:54 10° N
Resurs 01 Rocket 1.8 18:05:43 10° S 18:10:09 75° WSW 18:14:38 10° NNW
USA 215 4.4 18:07:16 10° ENE 18:13:20 42° N 18:19:24 10° WNW
Cosmos 2278 Rocket 4.0 18:12:45 12° ESE 18:13:28 12° E 18:15:31 10° ENE
DELTA 2 R/B (1) 4.4 18:11:05 10° WSW 18:16:01 33° S 18:19:17 18° SE
Cosmos 1602 4.2 18:14:44 10° N 18:18:27 44° ENE 18:20:37 22° SE
IGS 5A 3.7 18:14:41 11° S 18:18:40 69° WSW 18:22:51 10° NNW
SL-4 R/B 2.7 18:16:09 10° WNW 18:20:26 51° SSW 18:23:23 20° SE
Cosmos 1242 Rocket 2.9 18:18:57 19° SSE 18:21:15 45° E 18:24:42 10° NNE
Cosmos 2263 Rocket 4.2 18:20:15 10° WSW 18:25:09 31° NW 18:30:06 10° NNE
CZ-2C R/B 3.6 18:22:15 10° NNE 18:26:44 75° ESE 18:31:14 10° S
FALCON 9 DEB 4.0 18:24:35 10° WNW 18:27:22 31° SW 18:28:29 24° S
Cosmos 1844 Rocket 2.6 18:24:58 10° SSW 18:30:32 84° ESE 18:36:10 10° NNE
Landsat 7 4.2 18:26:24 12° S 18:30:47 63° WSW 18:35:33 10° NNW
Cosmos 1606 4.0 18:27:55 10° SSW 18:31:28 40° WNW 18:35:04 10° N
Spot 2 Rocket 3.5 18:28:42 19° SSE 18:32:18 73° ENE 18:37:21 10° N
SJ 16-02 3.6 18:33:24 10° E 18:33:24 10° E 18:33:50 10° E
Sich 1 3.2 18:28:58 10° NNW 18:33:16 71° W 18:36:41 16° S
X-37B 0.9 18:31:00 10° WSW 18:34:05 45° S 18:34:58 34° SE
CRYOSAT 2 4.3 18:31:03 18° SSE 18:34:43 76° E 18:39:38 10° N
Meteor 1-26 Rocket 4.3 18:35:25 14° S 18:40:21 63° E 18:45:52 10° NNE
Cosmos 1844 3.7 18:38:20 10° SSW 18:44:04 86° ESE 18:49:48 10° NNE
BREEZE-M DEB (TANK) 3.9 18:37:23 10° WNW 18:45:07 38° SW 18:46:40 25° S
USA 305 4.1 18:42:36 10° WNW 18:46:39 40° N 18:50:43 10° ENE
Cosmos 1503 Rocket 3.9 18:41:32 10° SSW 18:46:40 70° ESE 18:51:51 10° NNE
Cosmos 1812 3.5 18:50:44 30° ESE 18:51:20 32° E 18:54:48 10° NNE
Cosmos 1933 3.8 18:48:39 11° SSW 18:52:32 60° WNW 18:56:33 10° N
ERS-1 Rocket 2.9 18:51:15 27° SSE 18:54:01 75° ENE 18:59:04 10° NNW
ATLAS 5 CENTAUR R/B 2.3 18:52:13 10° NW 18:57:45 83° SW 19:01:23 28° SE
OE (NEXTSAT) 4.3 18:55:23 10° WSW 18:58:47 58° S 18:59:22 49° SE
ARIANE 5 R/B 2.8 18:56:57 25° S 18:59:22 67° WSW 19:03:42 10° NNW
Akebono 4.3 18:56:43 10° NNW 18:59:16 62° NE 18:59:16 62° NE
Cosmos 2184 Rocket 4.5 18:53:34 10° N 18:59:34 46° ENE 19:02:36 27° SE
Cosmos 1151 Rocket 3.0 18:57:29 23° S 19:00:11 90° ESE 19:04:36 10° N
Cosmos 1833 Rocket 3.2 18:56:28 10° NNW 19:02:00 50° NE 19:04:53 27° ESE
SPOT 1/Viking Rocket 4.2 18:58:06 17° S 19:02:01 50° W 19:07:05 10° NNW
[s.n.48335] 3.0 19:01:33 10° WSW 19:03:39 50° WSW 19:03:39 50° WSW
[s.n.48334] 3.0 19:01:38 10° WSW 19:03:42 49° WSW 19:03:42 49° WSW
[s.n.48333] 3.6 19:01:47 10° WSW 19:03:21 32° WSW 19:03:21 32° WSW
[s.n.48332] 3.0 19:01:43 10° WSW 19:03:47 49° WSW 19:03:47 49° WSW
[s.n.48331] 3.0 19:01:52 10° WSW 19:03:56 49° WSW 19:03:56 49° WSW
Cosmos 1709 Rocket 4.2 18:58:27 10° NNW 19:04:33 69° W 19:08:55 20° S
[s.n.48330] 3.6 19:02:02 10° WSW 19:03:36 32° WSW 19:03:36 32° WSW
[s.n.48329] 3.0 19:02:02 10° WSW 19:04:06 50° WSW 19:04:06 50° WSW
[s.n.48328] 3.6 19:02:11 10° WSW 19:03:45 32° WSW 19:03:45 32° WSW
[s.n.48327] 3.6 19:02:14 10° WSW 19:03:49 33° WSW 19:03:49 33° WSW
[s.n.48326] 3.1 19:02:14 10° WSW 19:04:13 45° WSW 19:04:13 45° WSW
USA 306 3.9 19:01:40 10° WNW 19:05:46 43° NNE 19:09:07 14° E
Cosmos 1437 2.6 19:06:40 57° ENE 19:06:40 57° ENE 19:09:13 10° NNE
H-2A R/B 3.8 19:02:42 10° NNE 19:06:47 47° E 19:07:43 39° SE
[s.n.48324] 3.1 19:05:02 10° WSW 19:07:02 46° WSW 19:07:02 46° WSW
[s.n.48325] 3.2 19:05:41 10° WSW 19:07:41 45° WSW 19:07:41 45° WSW
[s.n.48323] 3.8 19:05:55 10° WSW 19:07:25 30° WSW 19:07:25 30° WSW
[s.n.48321] 3.8 19:06:07 10° WSW 19:07:37 30° WSW 19:07:37 30° WSW
[s.n.48320] 3.8 19:06:10 10° WSW 19:07:41 31° WSW 19:07:41 31° WSW
[s.n.48322] 3.2 19:06:07 10° WSW 19:08:04 43° WSW 19:08:04 43° WSW
Cosmos 1515 Rocket 3.8 19:07:31 38° SE 19:08:48 51° E 19:13:06 10° NNE
[s.n.48319] 3.8 19:06:16 10° WSW 19:07:45 30° WSW 19:07:45 30° WSW
[s.n.48318] 3.8 19:06:17 10° WSW 19:07:46 30° WSW 19:07:46 30° WSW
[s.n.48317] 3.8 19:06:25 10° WSW 19:07:55 30° WSW 19:07:55 30° WSW
[s.n.48316] 3.8 19:06:30 10° WSW 19:08:00 30° WSW 19:08:00 30° WSW
[s.n.48315] 3.3 19:06:31 10° WSW 19:08:28 43° WSW 19:08:28 43° WSW
[s.n.48314] 3.2 19:06:35 10° WSW 19:08:35 45° WSW 19:08:35 45° WSW
[s.n.48313] 3.3 19:06:41 10° WSW 19:08:38 43° WSW 19:08:38 43° WSW
[s.n.48312] 3.3 19:06:46 10° WSW 19:08:42 43° WSW 19:08:42 43° WSW
[s.n.48311] 3.3 19:06:51 10° WSW 19:08:48 43° WSW 19:08:48 43° WSW
[s.n.48310] 3.4 19:06:54 10° WSW 19:08:42 38° WSW 19:08:42 38° WSW
[s.n.48309] 3.5 19:06:59 10° WSW 19:08:47 38° WSW 19:08:47 38° WSW
[s.n.48308] 3.2 19:07:05 10° WSW 19:09:03 44° WSW 19:09:03 44° WSW
[s.n.48307] 3.8 19:07:15 10° WSW 19:08:45 30° WSW 19:08:45 30° WSW
[s.n.48306] 3.3 19:07:14 10° WSW 19:09:10 43° WSW 19:09:10 43° WSW
[s.n.48305] 3.3 19:07:20 10° WSW 19:09:17 43° WSW 19:09:17 43° WSW
Cosmos 2074 Rocket 4.3 19:03:50 10° N 19:10:03 56° ENE 19:13:04 30° SE
[s.n.48304] 3.9 19:07:28 10° WSW 19:08:57 29° WSW 19:08:57 29° WSW
[s.n.48303] 3.3 19:07:29 10° WSW 19:09:25 43° WSW 19:09:25 43° WSW
[s.n.48302] 3.3 19:07:34 10° WSW 19:09:30 42° WSW 19:09:30 42° WSW
[s.n.48301] 3.9 19:07:44 10° WSW 19:09:14 30° WSW 19:09:14 30° WSW
[s.n.48300] 3.9 19:07:47 10° WSW 19:09:16 29° WSW 19:09:16 29° WSW
[s.n.48299] 3.9 19:07:54 10° WSW 19:09:24 30° WSW 19:09:24 30° WSW
[s.n.48298] 3.3 19:07:54 10° WSW 19:09:50 42° WSW 19:09:50 42° WSW
[s.n.48297] 3.3 19:07:59 10° WSW 19:09:57 43° WSW 19:09:57 43° WSW
[s.n.48296] 3.3 19:08:04 10° WSW 19:10:02 43° WSW 19:10:02 43° WSW
[s.n.48295] 3.9 19:08:15 10° WSW 19:09:41 29° WSW 19:09:41 29° WSW
[s.n.48294] 3.9 19:08:20 10° WSW 19:09:47 29° WSW 19:09:47 29° WSW
[s.n.48293] 3.9 19:08:24 10° WSW 19:09:51 29° WSW 19:09:51 29° WSW
[s.n.48292] 3.3 19:08:23 10° WSW 19:10:19 42° WSW 19:10:19 42° WSW
[s.n.48291] 3.9 19:08:34 10° WSW 19:10:01 29° WSW 19:10:01 29° WSW
[s.n.48290] 3.9 19:08:37 10° WSW 19:10:04 29° WSW 19:10:04 29° WSW
[s.n.48289] 3.9 19:08:44 10° WSW 19:10:12 29° WSW 19:10:12 29° WSW
[s.n.48288] 3.9 19:08:47 10° WSW 19:10:15 29° WSW 19:10:15 29° WSW
[s.n.48286] 3.9 19:08:51 10° WSW 19:10:20 29° WSW 19:10:20 29° WSW
[s.n.48287] 3.9 19:08:52 10° WSW 19:10:20 29° WSW 19:10:20 29° WSW
[s.n.48285] 3.9 19:09:04 10° WSW 19:10:30 29° WSW 19:10:30 29° WSW
CREW DRAGON DEMO-1 DEB 3.8 19:09:10 10° WNW 19:11:42 38° N 19:12:16 33° NE
[s.n.48284] 3.9 19:09:08 10° WSW 19:10:35 29° WSW 19:10:35 29° WSW
[s.n.48283] 3.9 19:09:14 10° WSW 19:10:41 29° WSW 19:10:41 29° WSW
[s.n.48282] 4.0 19:09:19 10° WSW 19:10:45 28° WSW 19:10:45 28° WSW
[s.n.48281] 3.3 19:09:19 10° WSW 19:11:16 42° WSW 19:11:16 42° WSW
[s.n.48280] 3.9 19:09:29 10° WSW 19:10:56 29° WSW 19:10:56 29° WSW
[s.n.48279] 4.0 19:09:33 10° WSW 19:10:59 28° WSW 19:10:59 28° WSW
[s.n.48278] 3.4 19:09:33 10° WSW 19:11:29 42° WSW 19:11:29 42° WSW
[s.n.48277] 4.0 19:09:43 10° WSW 19:11:09 28° WSW 19:11:09 28° WSW
[s.n.48276] 3.4 19:09:45 10° WSW 19:11:42 42° WSW 19:11:42 42° WSW
Gbstr 26 Del rocket 4.5 19:07:25 10° W 19:15:10 71° NNW 19:21:41 10° ENE
Cosmos 2315 Rocket 4.2 19:10:32 13° SSW 19:16:12 75° W 19:22:37 10° N
Cosmos 1666 2.9 19:12:53 10° N 19:16:33 51° ENE 19:17:03 47° ESE
Cosmos 1354 Rocket 4.1 19:11:27 10° SSW 19:16:40 79° WNW 19:21:57 10° NNE
SPOT 5 3.1 19:16:16 30° S 19:18:44 70° WSW 19:23:56 10° NNW
Cosmos 1633 Rocket 3.8 19:15:05 10° NNW 19:19:19 48° W 19:21:31 25° SSW
Meteor 2-6 Rocket 4.2 19:18:12 34° SSE 19:20:24 61° E 19:25:48 10° NNE
COSMOS 2406 3.3 19:15:49 10° NNW 19:21:31 69° ENE 19:23:55 35° SE
Cosmos 1782 3.6 19:21:23 21° SW 19:23:48 49° WNW 19:27:43 10° N
Cosmos 1470 Rocket 3.7 19:22:00 10° NNW 19:26:28 70° W 19:28:03 39° SSW
Meteor 1-11 Rocket 4.2 19:22:01 10° N 19:27:53 54° ENE 19:30:12 35° SE
BREEZE M DEB (TANK) 2.0 19:24:42 10° WNW 19:27:43 54° W 19:27:43 54° W
Cosmos 2084 3.8 19:30:03 44° ESE 19:30:03 44° ESE 19:33:39 10° NE
USA 307 3.7 19:26:07 10° WNW 19:30:17 49° NNE 19:32:40 23° E
Cosmos 2082 Rocket 2.9 19:25:16 10° NNW 19:30:40 45° NE 19:33:07 29° ESE
Cosmos 1328 Rocket 4.2 19:29:36 23° SSW 19:32:10 54° WNW 19:36:32 10° N
USA 290 4.4 19:30:48 10° WNW 19:33:04 18° WSW 19:33:41 17° WSW
NOSS 3-4 (A) 4.2 19:27:55 10° NW 19:34:40 59° NE 19:39:19 24° ESE
NOSS 3-4 (C) 4.2 19:28:01 10° NW 19:34:46 59° NE 19:39:26 24° ESE
BREEZE-M DEB (TANK) 3.4 19:35:42 10° WNW 19:36:29 21° WNW 19:36:29 21° WNW
Terra 2.0 19:36:02 38° SSW 19:37:43 63° WSW 19:42:29 10° NNW
Meteor 2-12 Rocket 4.5 19:33:09 10° N 19:39:13 66° ENE 19:41:27 39° SE
SL-24 DEB 4.1 19:39:41 52° SSE 19:40:47 79° E 19:45:23 10° N
Cosmos 1933 Rocket 3.6 19:36:55 10° NNW 19:41:15 74° W 19:42:14 51° SSW
CZ-4C R/B 2.9 19:35:10 10° NW 19:42:21 87° SW 19:46:26 34° SE
USA 308 3.5 19:39:29 10° WNW 19:43:44 54° NNE 19:45:34 30° E
NOSS 3-3 (A) 3.8 19:38:52 11° SW 19:44:26 84° SE 19:51:06 10° NE
NOSS 3-3 (C) 3.8 19:39:05 12° SW 19:44:32 83° SE 19:51:12 10° NE
Cosmos 1500 4.3 19:42:07 10° NNW 19:45:34 34° W 19:46:25 30° WSW
ATLAS 2AS CENTAUR R/B 3.5 19:41:00 10° NW 19:48:15 48° NE 19:53:10 19° ESE
Cosmos 1340 Rocket 3.9 19:47:00 10° N 19:50:44 33° ENE 19:50:58 32° ENE
Cosmos 1538 Rocket 4.0 19:46:34 10° NNW 19:51:58 79° WSW 19:53:29 48° S
Cosmos 1271 Rocket 2.6 19:52:30 77° SE 19:52:39 79° ESE 19:56:41 10° NNE
Meteor 1-10 Rocket 4.1 19:51:59 41° S 19:54:03 87° ESE 19:59:43 10° NNE
USA 215 3.6 19:50:33 16° E 19:55:47 63° NNE 20:02:14 10° NW
Cosmos 2278 Rocket 2.1 19:54:32 41° S 19:56:31 74° ESE 20:02:11 10° NNE
Cosmos 2228 Rocket 2.9 19:56:20 65° SE 19:56:45 70° E 20:01:11 10° NNE
Cosmos 1536 2.9 19:52:50 10° N 19:56:52 61° ENE 19:56:59 60° E
Cosmos 1733 Rocket 4.1 20:02:14 10° N 20:06:07 31° ENE 20:06:25 31° E
SeaSat 1 4.4 20:03:35 10° ENE 20:05:22 15° E 20:05:22 15° E
SJ 16-02 1.2 20:10:20 72° SSW 20:10:47 89° ESE 20:15:15 10° NNE
Cosmos 1680 Rocket 3.9 20:05:37 10° NNW 20:10:52 56° ENE 20:12:13 43° ESE
Iridium 4 Rocket 4.4 20:09:16 28° SW 20:12:01 49° W 20:17:44 10° N
Cosmos 1295 Rocket 4.5 20:06:00 10° N 20:12:23 88° E 20:14:26 46° S
BREEZE-M DEB (TANK) 3.8 20:06:12 10° W 20:13:07 49° NNW 20:14:41 23° NE
Cosmos 158 Rocket 3.7 20:16:09 10° NNW 20:21:01 72° WSW 20:21:36 64° SSW
USA 305 2.8 20:22:40 10° WNW 20:26:54 85° N 20:26:54 85° N
Cosmos 1943 Rocket 3.4 20:27:19 26° E 20:27:19 26° E 20:31:39 10° NE
Cosmos 44 4.3 20:23:12 10° NNW 20:28:28 46° NE 20:30:38 30° E
Cosmos 1238 Rocket 4.1 20:25:45 10° N 20:32:14 64° ENE 20:33:45 48° SE
SL-8 Rocket 4.1 20:29:12 10° N 20:35:31 66° ENE 20:37:14 47° SE
Cosmos 2154 Rocket 4.4 20:30:33 10° NNW 20:36:43 55° W 20:38:48 39° SW
Cosmos 1544 3.8 20:35:57 10° NNW 20:38:49 48° NW 20:38:49 48° NW
ATLAS 5 CENTAUR R/B 4.1 20:37:58 10° WNW 20:41:59 19° WSW 20:42:54 18° SW
Cosmos 923 Rocket 4.0 20:40:01 10° NNW 20:45:12 63° WSW 20:45:47 59° SW
Cosmos 1862 Rocket 4.0 20:45:56 50° ENE 20:45:56 50° ENE 20:49:46 10° NNE
Cosmos 1833 Rocket 3.8 20:40:49 10° NW 20:45:40 30° WSW 20:46:34 29° WSW
USA 306 3.2 20:41:41 10° WNW 20:45:11 57° W 20:45:11 57° W
Cosmos 2297 3.9 20:49:12 51° ESE 20:49:32 52° ESE 20:55:03 10° NE
Cosmos 1743 3.3 20:46:53 10° NNW 20:50:07 54° NW 20:50:07 54° NW
Cosmos 1898 Rocket 3.4 20:50:30 65° SE 20:50:53 68° ESE 20:56:12 10° NNE
Meteor 1-27 Rocket 4.3 20:49:20 37° SW 20:51:22 55° WNW 20:57:10 10° N
ALOS 2 2.5 20:57:05 81° WNW 20:57:05 81° WNW 21:01:25 10° NNW
Gbstr 26 Del rocket 4.2 20:55:47 10° WNW 21:03:01 72° N 21:08:53 10° E
Cosmos 864 Rocket 4.4 20:59:03 10° N 21:05:17 84° E 21:06:39 57° SSE
Cosmos 1959 Rocket 4.4 21:01:54 10° N 21:08:13 90° WSW 21:09:37 57° S
ERBS 4.3 21:06:03 10° NW 21:08:56 26° NNE 21:09:35 24° NE
Cosmos 1707 Rocket 4.1 21:09:26 49° W 21:09:36 49° WNW 21:13:53 10° N
USA 307 4.1 21:06:09 10° WNW 21:08:45 34° W 21:08:45 34° W
SL-24 R/B - RUBIN 2 3.8 21:06:06 10° NW 21:11:42 89° NE 21:12:13 73° SE
Meteor 1-19 Rocket 4.0 21:12:39 69° S 21:13:20 85° E 21:18:45 10° NNE
Cosmos 2181 Rocket 3.9 21:12:35 55° SSW 21:14:03 84° W 21:20:15 10° N
Cosmos 2082 Rocket 3.1 21:09:37 10° NW 21:14:37 34° WSW 21:14:57 34° WSW
Cosmos 2242 Rocket 4.3 21:18:45 43° E 21:18:45 43° E 21:22:42 10° NNE
Cosmos 990 Rocket 4.3 21:19:42 48° WSW 21:20:51 59° WNW 21:26:04 10° NNE
Okean 1 3.9 21:22:11 52° NW 21:22:11 52° NW 21:25:46 10° N
Cosmos 2084 Rocket 3.7 21:17:45 10° NW 21:21:59 63° NE 21:22:10 62° ENE
COBE Rocket 3.9 21:22:50 65° WSW 21:23:08 67° W 21:28:14 10° NNW
USA 308 4.5 21:19:35 10° WNW 21:21:39 26° W 21:21:39 26° W
Cosmos 2112 Rocket 4.5 21:18:57 10° NNW 21:24:03 46° WSW 21:24:16 46° WSW
NOSS 3-4 (A) 4.3 21:18:58 10° NW 21:25:33 42° WSW 21:26:44 40° SW
NOSS 3-4 (C) 4.3 21:19:04 10° NW 21:25:39 43° WSW 21:26:52 40° SW
Okean 1-7 3.6 21:28:19 47° ENE 21:28:19 47° ENE 21:32:03 10° NNE
CZ-4C R/B 4.2 21:24:33 10° WNW 21:30:26 25° WSW 21:31:37 24° SW
Cosmos 2366 rocket 4.1 21:25:50 10° NNW 21:31:54 62° W 21:33:10 51° SW
Cosmos 372 Rocket 3.9 21:32:55 64° ESE 21:33:04 64° ESE 21:38:08 10° NNE
Cosmos 1821 Rocket 4.2 21:27:56 10° N 21:34:20 68° E 21:36:12 47° SE
RESURS DK-1 3.9 21:33:33 10° NNW 21:37:19 31° NE 21:38:32 26° E
Helios 1A 4.3 21:37:05 29° E 21:37:46 31° ENE 21:41:27 10° N
USA 215 3.3 21:37:52 51° S 21:38:53 56° SW 21:45:19 10° WNW
ATLAS 2AS CENTAUR R/B 2.9 21:32:17 10° NW 21:39:23 54° WSW 21:40:34 49° SSW
Cosmos 2278 Rocket 4.1 21:36:37 10° W 21:41:12 25° NW 21:45:49 10° N
Cosmos 1733 Rocket 4.5 21:40:09 10° NNW 21:43:30 27° W 21:43:30 27° W
Resurs 1-4 Rocket 4.2 21:41:13 10° NE 21:44:07 15° E 21:45:43 13° ESE
SeaSat 1 2.3 21:39:39 10° NNE 21:44:38 86° WNW 21:45:09 72° SW
Cosmos 1975 3.8 21:41:14 10° NNW 21:44:19 40° WNW 21:44:19 40° WNW
Cosmos 2218 Rocket 4.5 21:40:53 10° NNW 21:46:50 47° W 21:48:10 41° SW
Cosmos 1818 3.4 21:44:07 10° NW 21:49:35 72° SW 21:50:02 68° SSW
Thor Agena Rocket 3.6 21:44:37 10° N 21:49:49 70° WNW 21:50:40 59° SW
SJ 16-02 4.0 21:47:41 10° W 21:50:03 14° NW 21:52:26 10° NNW
ATLAS CENTAUR R/B 3.9 21:52:17 10° E 21:52:17 10° E 21:52:23 10° E
Cosmos 2369 Rocket 2.2 21:52:21 59° SSE 21:53:02 65° ESE 21:58:37 10° NNE
Cosmos 1908 Rocket 3.9 21:49:20 10° NNW 21:53:28 56° W 21:53:28 56° W
Cosmos 2298 Rocket 4.3 22:00:18 51° SE 22:00:50 53° ESE 22:06:00 10° NNE
Cosmos 1937 Rocket 4.2 22:00:13 38° W 22:01:26 45° WNW 22:06:26 10° NNE
Meteor 2-4 Rocket 3.8 22:00:41 54° SW 22:01:53 68° WNW 22:07:35 10° N
Cosmos 1805 4.2 21:58:29 10° N 22:02:11 39° ENE 22:02:15 39° ENE
Cosmos 1300 Rocket 4.2 21:58:50 10° N 22:03:07 46° ENE 22:03:41 43° E
Cosmos 2263 4.3 22:06:43 54° SSE 22:07:40 62° ESE 22:13:24 10° NNE
Cosmos 1048 Rocket 3.9 22:02:53 10° NNW 22:08:16 88° ENE 22:09:14 61° SSE
Cosmos 44 4.3 22:04:42 10° NW 22:09:02 36° W 22:09:02 36° W
Cosmos 1943 Rocket 2.6 22:08:48 41° WSW 22:10:27 56° WNW 22:15:59 10° NNE
Nadezhda 3 Rocket 3.9 22:10:19 52° SSW 22:11:59 83° W 22:18:16 10° N
Cosmos 1378 3.6 22:12:53 59° NNE 22:12:53 59° NNE 22:15:58 10° N
Cosmos 1066 Rocket 4.4 22:11:13 49° SSE 22:12:34 64° E 22:18:14 10° NNE
Cosmos 1733 4.1 22:10:12 10° N 22:13:48 42° ENE 22:13:49 42° ENE
Cosmos 2221 Rocket 4.4 22:15:54 40° ESE 22:16:25 42° E 22:20:44 10° NNE
Cosmos 2344 4.3 22:11:38 10° NW 22:20:45 84° NE 22:33:32 10° SE
Cosmos 1703 Rocket 4.1 22:22:51 44° W 22:22:58 44° WNW 22:27:11 10° N
PSLV R/B 4.0 22:20:21 10° N 22:24:42 52° WNW 22:25:01 50° W
Cosmos 1782 Rocket 4.0 22:20:29 10° NNW 22:24:37 48° W 22:24:37 48° W
EO 1 Del DPAF 4.0 22:23:40 10° N 22:26:56 43° NW 22:26:56 43° NW
ISS -1.7 22:29:28 23° E 22:29:28 23° E 22:30:55 10° ENE
EO 1 Delta rocket 4.0 22:27:34 56° WSW 22:28:04 59° W 22:33:30 10° NNW
Cosmos 1833 4.1 22:23:53 10° NNW 22:29:40 81° WSW 22:31:18 49° SSE
Cosmos 2150 Rocket 4.0 22:31:22 59° SSW 22:32:27 88° ESE 22:37:48 10° NNE
USA 281 3.1 22:31:15 36° SSE 22:34:12 83° WSW 22:40:49 10° NNW
Meteor 1-15 Rocket 4.1 22:32:13 10° NNW 22:37:54 84° W 22:39:31 49° S
Cosmos 1356 Rocket 3.8 22:33:52 10° NNW 22:37:47 53° W 22:37:47 53° W
Cosmos 1605 Rocket 4.1 22:33:08 10° N 22:39:21 75° E 22:42:09 35° SSE
Cosmos 2297 Rocket 4.5 22:36:39 10° N 22:41:08 23° NE 22:45:37 10° E
Cosmos 1656 Rocket 3.5 22:39:52 54° SSW 22:41:10 86° WNW 22:46:44 10° NNE
Cosmos 1867 3.5 22:40:28 55° S 22:41:37 73° SE 22:47:06 10° NE
Cosmos 1461 3.4 22:43:50 49° W 22:44:49 61° NW 22:49:25 10° NNE
COSMOS 2487 3.8 22:42:59 10° N 22:46:08 33° ENE 22:46:58 29° E
Cosmos 1607 4.0 22:44:48 44° SSW 22:47:02 82° SE 22:53:34 10° NE
MOZ.5/SAFIR/RUBIN 5/SL-8 3.6 22:47:03 61° S 22:47:51 83° W 22:52:31 10° NNW
Cosmos 1842 4.0 22:49:04 41° ESE 22:49:30 42° E 22:53:10 10° NNE
Gbstr 26 Del rocket 3.7 22:43:46 10° WNW 22:50:14 58° SW 22:52:16 37° SSE
Sich 1 Rocket 3.8 22:46:58 10° NNW 22:51:26 52° W 22:51:40 52° WSW
CZ-4 R/B 3.9 22:46:33 10° N 22:51:29 73° WNW 22:52:29 54° SW
BREEZE-M R/B 3.2 22:51:25 61° SSW 22:51:29 61° SSW 22:58:20 10° ESE
CZ-2D R/B 2.6 22:48:13 10° NNE 22:53:33 53° E 22:55:33 35° SSE
Cosmos 1378 Rocket 4.2 22:52:53 38° SE 22:53:55 46° E 22:58:04 10° NNE
SL-27 R/B 4.0 22:53:28 10° NW 22:55:13 26° NW 22:55:13 26° NW
Okean 1 Rocket 3.6 22:57:19 10° N 23:01:41 55° ENE 23:03:26 32° SE
USA 81 4.0 22:56:42 10° N 23:01:59 70° W 23:03:27 47° SSW
Gblst 52 Del rocket 4.3 23:00:49 10° WNW 23:07:01 57° SW 23:12:34 10° SE
Okean 2 4.0 23:08:12 39° SE 23:09:18 52° E 23:13:23 10° NNE
Cosmos 1125 Rocket 3.7 23:08:18 40° WSW 23:09:56 59° WNW 23:15:07 10° NNE
SL-16 R/B 2.5 23:07:08 28° SSE 23:10:42 86° WSW 23:17:02 10° NNW
Helios 1A 4.1 23:13:41 28° W 23:13:41 28° W 23:16:57 10° NW
Helios 1B rocket 2.5 23:09:38 10° NNE 23:13:48 73° ESE 23:14:43 51° S
RESURS DK-1 3.5 23:11:36 10° NW 23:14:23 29° W 23:14:23 29° W
Lacrosse 5 3.3 23:14:37 22° SSE 23:15:51 24° SE 23:19:55 10° ENE
Meteor 2-10 4.1 23:11:29 10° N 23:17:01 84° ENE 23:19:50 29° SSE
Cosmos 1674 Rocket 3.5 23:17:06 51° SSW 23:18:12 85° W 23:22:41 10° N
Cosmos 2151 Rocket 3.9 23:14:57 10° NNW 23:19:20 50° W 23:20:01 45° WSW
IDEFIX/ARIANE 42P 4.5 23:15:14 10° NE 23:19:25 23° E 23:23:34 10° SE
Okean 2 Rocket 3.7 23:15:39 10° NNW 23:19:44 38° W 23:20:02 37° WSW
NOSS 2-1 (E) 4.2 23:17:26 10° NW 23:22:22 87° NE 23:29:25 10° SE
BREEZE-M DEB (TANK) 4.2 23:22:19 37° SSW 23:24:16 58° SE 23:38:51 10° ENE
Resurs 1-4 Rocket 2.0 23:19:21 10° NNE 23:24:38 86° WNW 23:26:48 37° SSW
ADEOS II 2.8 23:20:13 10° NNE 23:25:18 47° E 23:28:21 23° SSE
Cosmos 44 Rocket 3.3 23:21:44 10° NW 23:26:59 78° SW 23:31:48 12° SSE
ATLAS CENTAUR R/B 1.1 23:28:25 56° WSW 23:29:04 72° NW 23:32:52 10° NE
DELTA 2 DEB (DPAF) 4.4 23:30:32 19° SSE 23:33:41 66° ENE 23:38:08 10° N
Cosmos 1707 3.1 23:32:59 35° SSE 23:34:20 58° E 23:38:06 10° NNE
Cosmos 1758 3.6 23:30:36 10° N 23:34:42 69° E 23:36:53 26° SSE
Meteor 1-21 4.3 23:33:59 28° S 23:37:13 80° E 23:43:03 10° NNE
Cosmos 2369 Rocket 3.7 23:34:06 16° W 23:37:31 27° NW 23:42:18 10° NNE
Cosmos 1727 Rocket 4.0 23:36:03 29° SSW 23:39:27 77° W 23:45:50 10° N
Cosmos 2251 Rocket 4.3 23:37:00 10° NNW 23:42:09 52° ENE 23:47:15 10° SE
Cosmos 1269 Rocket 4.3 23:39:10 10° NNW 23:44:15 48° WSW 23:46:29 30° SSW
Cosmos 1315 Rocket 3.2 23:41:00 10° N 23:44:56 60° ENE 23:47:58 16° SSE
IRS-1D 4.0 23:41:41 10° NNE 23:46:57 60° ESE 23:50:36 20° S
Cosmos 1455 Rocket 3.7 23:42:57 10° N 23:47:13 52° ENE 23:51:26 10° SSE
AQUA 3.8 23:43:00 10° NNE 23:47:47 80° WNW 23:50:04 31° SSW
Cosmos 1400 Rocket 3.4 23:44:20 10° NNW 23:48:14 41° W 23:49:02 36° SW
UNK 4.3 23:50:07 32° SW 23:51:23 39° W 23:55:43 10° NNW
Cosmos 1943 Rocket 4.5 23:52:21 10° WNW 23:55:29 15° NW 23:58:37 10° N
